Gwinn, MI

5:23 AM EDT on April 27, 2018 (GMT -0400)
Sawyer International

Weather History for KSAW - June, 2013

Change the Weather History Date:

Friday, June 28, 2013

  Actual Average (KESC) Record (KESC)
Temperature  
Mean Temperature 58 °F -  
Max Temperature 62 °F 71 °F 87 °F (1959)
Min Temperature 55 °F 55 °F 41 °F (2003)
Degree Days  
Heating Degree Days 6    
Growing Degree Days 8 (Base 50)    
Moisture  
Dew Point 58 °F    
Average Humidity 95    
Maximum Humidity 100    
Minimum Humidity 86    
Precipitation  
Precipitation 0.00 in - - ()
Sea Level Pressure  
Sea Level Pressure 29.68 in    
Wind  
Wind Speed 6 mph (North)    
Max Wind Speed 12 mph    
Max Gust Speed -    
Visibility 5 miles    
Events Fog , Rain , Thunderstorm    
Averages and records for this station are not official NWS values.
T = Trace of Precipitation, MM = Missing Value Source: NWS Daily Summary

Daily Weather History Graph

Daily Weather History Graph

Search for Another Location

Airport or City:

Astronomy

Jun. 28, 2013 Rise Set
Actual Time 5:59 AM EDT 9:45 PM EDT
Civil Twilight 5:20 AM EDT 10:24 PM EDT
Nautical Twilight 4:28 AM EDT 11:17 PM EDT
Astronomical Twilight 3:14 AM EDT 12:31 AM EDT
Moon 12:22 AM EDT (6/28) 12:29 PM EDT (6/28)
Length of Visible Light 17h 03m
Length of Day
15h 46m
Waning Gibbous, 66% of the Moon is Illuminated
Jun 28
Waning Gibbous
Jun 30
Last Quarter
Jul 8
New
Jul 15
First Quarter
Jul 22
Full

Hourly Weather History & Observations

Time (EDT) Temp. Dew Point Humidity Pressure Visibility Wind Dir Wind Speed Gust Speed Precip Events Conditions
12:17 AM 61.2 °F 59.5 °F 94% 29.71 in 10.0 mi WNW 6.9 mph - N/A   Scattered Clouds
12:36 AM 61.2 °F 59.5 °F 94% 29.71 in 10.0 mi West 6.9 mph - N/A Thunderstorm Scattered Clouds
12:57 AM 62.6 °F 59.4 °F 89% 29.69 in 10.0 mi West 9.2 mph - N/A   Scattered Clouds
1:16 AM 62.6 °F 59.0 °F 88% 29.67 in 10.0 mi West 6.9 mph - N/A   Overcast
1:36 AM 61.9 °F 57.7 °F 86% 29.67 in 10.0 mi West 6.9 mph - N/A   Overcast
1:57 AM 60.8 °F 57.6 °F 89% 29.66 in 10.0 mi WNW 4.6 mph - N/A Rain Light Rain
2:36 AM 60.3 °F 57.7 °F 91% 29.65 in 10.0 mi West 8.1 mph - N/A   Overcast
2:56 AM 60.3 °F 57.7 °F 91% 29.66 in 10.0 mi NW 5.8 mph - N/A   Overcast
3:16 AM 60.3 °F 57.7 °F 91% 29.66 in 10.0 mi North 3.5 mph - N/A   Overcast
3:37 AM 61.0 °F 59.0 °F 93% 29.66 in 10.0 mi ENE 3.5 mph - N/A   Overcast
3:56 AM 61.3 °F 58.8 °F 91% 29.66 in 10.0 mi Calm Calm - N/A   Overcast
4:16 AM 60.1 °F 58.5 °F 94% 29.66 in 10.0 mi ENE 4.6 mph - N/A   Overcast
4:36 AM 59.0 °F 57.7 °F 96% 29.66 in 0.8 mi NE 5.8 mph - N/A   Overcast
4:56 AM 59.0 °F 57.7 °F 96% 29.66 in 5.0 mi ENE 3.5 mph - N/A   Overcast
5:17 AM 58.6 °F 57.6 °F 96% 29.66 in 5.0 mi Calm Calm - N/A   Overcast
5:36 AM 58.5 °F 57.6 °F 97% 29.66 in 1.8 mi ENE 3.5 mph - N/A   Overcast
5:56 AM 58.8 °F 57.9 °F 97% 29.66 in 0.8 mi Calm Calm - N/A   Overcast
6:50 AM 59.0 °F 57.2 °F 94% 29.67 in 0.5 mi Calm Calm - N/A Fog Fog
7:15 AM 59.0 °F 59.0 °F 100% 29.66 in 2.0 mi Calm Calm - N/A   Overcast
7:50 AM 59.0 °F 59.0 °F 100% 29.66 in 7.0 mi Calm Calm - N/A   Overcast
8:50 AM 60.8 °F 59.0 °F 94% 29.65 in 7.0 mi North 3.5 mph - N/A   Overcast
9:30 AM 60.8 °F 59.0 °F 94% 29.65 in 10.0 mi North 4.6 mph - N/A Rain Light Rain
9:50 AM 60.8 °F 59.0 °F 94% 29.65 in 10.0 mi NNE 5.8 mph - N/A Rain Light Rain
10:50 AM 60.8 °F 59.0 °F 94% 29.65 in 7.0 mi NE 10.4 mph - N/A   Light Drizzle
11:33 AM 60.8 °F 57.2 °F 88% 29.66 in 1.0 mi NNE 10.4 mph - N/A   Overcast
11:46 AM 59.0 °F 57.2 °F 94% 29.67 in 0.5 mi NNE 11.5 mph - N/A Fog Fog
12:46 PM 57.2 °F 57.2 °F 100% 29.68 in 1.0 mi NNE 9.2 mph - N/A Rain Rain
1:45 PM 57.2 °F 57.2 °F 100% 29.69 in 0.5 mi NNE 10.4 mph - N/A Fog Fog
2:50 PM 57.2 °F 57.2 °F 100% 29.69 in 0.5 mi NNE 5.8 mph - N/A Fog Fog
3:50 PM 59.0 °F 57.2 °F 94% 29.69 in 7.0 mi North 9.2 mph - N/A   Overcast
4:33 PM 57.2 °F 55.4 °F 94% 29.69 in 0.8 mi North 6.9 mph - N/A   Overcast
4:50 PM 57.2 °F 57.2 °F 100% 29.69 in 1.0 mi NNE 8.1 mph - N/A   Overcast
5:55 PM 59.0 °F 57.2 °F 94% 29.70 in 1.0 mi NNE 8.1 mph - N/A   Overcast
6:50 PM 57.2 °F 57.2 °F 100% 29.71 in 0.8 mi North 11.5 mph - N/A   Overcast
7:18 PM 57.2 °F 55.4 °F 94% 29.71 in 0.2 mi NNE 9.2 mph - N/A Fog Fog
8:55 PM 55.4 °F 55.4 °F 100% 29.73 in 0.2 mi North 6.9 mph - N/A Fog Fog
9:50 PM 55.4 °F 55.4 °F 100% 29.73 in 0.5 mi North 8.1 mph - N/A Fog Fog
10:16 PM 56.3 °F 55.6 °F 97% 29.74 in 0.5 mi NNE 5.8 mph - N/A Fog Fog
10:36 PM 56.8 °F 56.3 °F 98% 29.74 in 0.5 mi NNE 5.8 mph - N/A Fog Fog
10:57 PM 56.8 °F 56.3 °F 98% 29.74 in 1.5 mi North 6.9 mph - N/A   Overcast
11:16 PM 57.0 °F 56.3 °F 97% 29.74 in 3.0 mi North 10.4 mph - N/A   Overcast
11:36 PM 55.6 °F 54.9 °F 97% 29.74 in 7.0 mi North 6.9 mph - N/A   Overcast
11:56 PM 55.8 °F 55.0 °F 97% 29.74 in 10.0 mi North 8.1 mph - N/A   Overcast